sat.trackr.live / text

‹ back to catalog

STARLINK-32292

NORAD 61889 · 2024-204R

PAYLOAD ACTIVE UNKNOWN

§ Identity

Operator
Country
US
Launch date
2024-11-09
Launch site
AFWTR
Launch vehicle
Mass (kg)
RCS (m²)

Purposes: comms

External: N2YO · Heavens-Above · Gunter

§ Orbital elements

Epoch: 2026-09-21T01:48:09.845280Z

Period
93.85 min
Inclination
53.1615°
Eccentricity
0.0001215
Mean motion
15.34389057 rev/d
Perigee alt
461.9 km
Apogee alt
463.6 km
Semi-major
6,840.9 km
B*
4.4190e-5
RAAN
295.1580°
Arg perigee
88.1278°
Mean anomaly
271.9863°
Rev number
10,507

§ Raw data

STARLINK-322921 61889U 24204R   26264.07511395  .00001117  00000+0  44190-4 0  99962 61889  53.1615 295.1580 0001215  88.1278 271.9863 15.34389057105072

JSON: /api/v1/satellites/61889 · /tle

For live sub-satellite position, see the globe view (requires WebGL).

§ Visibility from observer

Set your observer location to see the next 7 days of passes ≥ 10°. The values pass through the URL so the page stays shareable.

No JS? Fill the form by hand. The geolocation button needs JavaScript.